Vertical_Velocity
5 -1 -4 -5 8 5 -4 -2 -6 -5 -1 -3 -2 -3 -3 -4 -4 10 -4 -5 -0 -2 -4 2 2 -2 -0 3 4 -6 -8 -1 -4 -2 -2 -1 -3 1 3 8 10 -2 3 -2 2 4 -3 0 4
-2 -4 2 -4 6 1 6 -5 7 1 -2 -5 -4 -2 0 -0 0 -2 0 4 0 -5 -7 -5 -6 -1 -1 4 1 -4 -1 -5 -2 -1 3 2 5 2 -1 5 -2 1 -7 3 1 1 -1 -0 -0
-2 1 2 1 8 0 -2 8 -3 -5 -1 -3 -2 -4 -6 -2 1 3 2 4 4 -1 1 -5 -5 1 1 -1 -0 -5 -5 2 4 2 9 -6 -1 -1 0 -2 1 -0 -4 -2 -1 -1 -1 -4 -0
-4 6 3 16 0 -8 -4 -0 -0 1 -2 -6 2 1 0 -1 -2 -4 -2 -7 -2 3 4 -0 5 2 -0 3 1 1 -3 3 -4 4 -2 -1 -3 -3 2 -2 0 -1 2 3 3 0 2 2 1
2 -5 1 2 3 -5 3 -3 -2 -4 -2 2 -4 -0 -1 2 -2 2 4 2 1 -0 -0 -1 -4 -2 2 -3 -8 -7 2 -0 1 1 0 0 1 3 1 -2 0 0 -1 -2 -3 1 -1 -1 0
8 -5 5 2 -5 -2 -1 1 0 2 2 -1 -1 2 -3 -2 2 2 2 -0 -0 -1 3 -0 -1 -5 -5 -8 -0 3 -3 -1 1 -3 -0 -1 1 1 -1 1 1 -1 -1 -2 -1 -1 -1 1 1
9 11 4 -3 -1 2 -1 -3 4 2 0 4 1 2 -3 7 -1 2 3 3 1 0 0 -0 3 -5 -1 -1 -0 -1 1 -2 -2 -1 -1 -0 -1 -1 -0 0 0 -0 -1 -1 -0 0 1 1 0
0 5 -0 2 2 1 -4 0 -1 3 0 -3 -6 4 -2 3 2 3 1 2 1 -6 -3 -5 -3 -2 0 -0 -7 -1 1 -1 1 0 0 1 -1 0 -0 -0 0 -1 1 0 -0 1 0 0 1
3 4 2 -3 3 -5 -1 6 -1 -1 3 -3 -6 -3 -3 -1 1 3 4 5 3 2 1 7 -3 -2 3 -5 -1 1 -0 -1 -0 1 -1 1 -1 1 1 1 2 1 0 -1 -1 -0 -1 -0 1
-3 11 0 -6 -4 3 -4 3 -0 1 -1 0 3 -4 -3 -2 -0 -5 -0 -3 -0 -8 -6 -2 0 -7 -2 -6 -1 -2 -1 0 1 -0 -2 -1 -0 -1 -1 -1 -1 -1 -0 0 2 1 0 1 -1
-2 1 -1 -1 -5 -2 -4 -2 -3 1 2 -2 1 -2 -1 -1 0 -1 2 -3 2 -4 1 1 -2 -0 -1 1 -0 0 -1 -2 -1 -1 -2 -2 -2 -2 -0 0 2 2 3 1 0 -1 1 1 1
-4 -5 -1 0 2 -2 6 2 8 3 3 -6 -6 0 2 5 -3 -3 -2 -4 -6 3 1 -0 -1 -3 -5 1 2 -0 -2 -1 -1 0 0 -0 0 -2 -1 -1 -1 0 1 1 2 1 1 1 2
6 -1 -4 -3 -1 -4 -0 1 -0 3 -1 1 -1 -1 1 3 1 -3 -6 -3 -1 -0 -2 -3 2 -1 1 0 -2 -1 1 0 1 -1 -4 -4 -2 -1 -0 -1 -0 -1 -2 -2 0 0 -1 -1 -2
-6 -1 -2 -0 -1 -1 0 -1 -3 -3 -1 2 5 5 0 -1 -5 -3 -2 1 7 4 -3 -1 -2 -4 -2 -2 -2 -3 -4 -2 -2 0 1 2 0 0 -1 -3 -3 -2 -1 -0 -2 -3 -3 -3 -5
-6 1 -3 4 -5 -2 1 -1 -1 -3 -0 2 4 -2 -0 -2 0 1 4 2 1 -0 1 2 1 -1 -1 -0 1 -0 -1 -2 -0 1 -1 -2 -3 -2 -3 -3 -2 -3 -1 -0 2 1 1 2 -0
3 -5 13 -5 4 1 -4 20 1 -5 -1 -3 -2 -1 3 -0 4 6 -1 -1 2 2 1 -2 -1 3 3 2 1 -2 -2 -3 -2 -1 -1 -1 -0 -3 -4 -3 -1 -3 -5 -4 -4 -4 -3 -3 -0
-5 10 1 1 -2 -1 -3 1 14 -6 3 3 2 -2 -2 2 3 -2 1 1 -1 -1 2 4 3 0 -1 -2 -1 -1 -2 -1 -1 -2 -1 -1 -0 1 -4 -4 1 -1 -2 -2 -1 0 -3 0 -4
2 3 -2 -2 -4 -3 3 5 0 -2 1 -0 -1 1 2 9 4 2 4 3 2 4 3 4 2 -4 -2 2 2 2 1 -0 -0 -1 -1 -1 -3 0 1 0 -3 -4 -5 -1 -2 -1 4 -7 1
-2 -2 1 1 -1 -1 -1 2 -0 -2 2 2 1 2 4 6 11 2 1 3 2 1 -1 -1 0 2 -0 1 1 1 -1 -0 1 1 0 2 1 0 -4 -5 -1 3 -0 -1 5 4 -4 1 -5
-2 -0 2 -2 -2 -3 -1 5 -0 1 2 3 6 6 5 5 3 6 4 3 3 2 1 -1 -1 -1 1 2 4 3 3 4 0 -3 1 -4 -7 -7 -7 -6 -5 -6 -4 -5 -5 -2 1 -1 1
-1 1 -1 -2 -1 -1 -3 5 4 2 2 0 1 1 3 2 4 3 2 2 0 -1 -2 -3 -1 2 3 2 2 1 2 4 0 -1 -2 1 1 1 3 2 2 3 4 6 7 3 4 -3 9
7 1 0 -1 -1 17 -5 12 1 2 1 1 3 3 2 -0 0 0 -1 -1 -1 -1 -1 -1 0 3 3 2 -1 1 -1 -0 0 -1 -5 3 2 0 1 0 -2 -1 1 3 -0 -1 -1 0 4
-2 -2 -0 1 1 -1 -1 6 -1 1 4 4 2 1 0 2 0 -0 2 1 1 2 1 0 0 0 2 6 4 3 3 -0 -2 -2 -0 -9 2 -1 0 -0 1 -2 -1 -2 -2 1 6 -1 -0
-4 -3 -1 -2 -2 5 -3 1 1 11 1 1 1 1 2 1 1 -1 -0 -0 -1 0 1 1 1 1 4 2 2 1 1 -0 -2 2 -0 5 4 0 1 -2 -3 -2 -1 -5 -6 1 3 -2 7
3 1 4 2 5 4 -5 -1 5 -2 -1 1 1 1 2 2 0 -2 -3 -2 -0 -1 1 2 2 2 -3 -3 -1 -0 -9 0 -0 -2 -3 -5 -4 0 -5 -4 -5 -3 1 2 -0 1 -5 -1 1
-2 -3 1 1 1 2 -7 4 3 -3 -1 0 -0 -1 -0 -3 -4 -2 -2 -1 0 2 2 0 -0 -2 -2 -6 -4 1 -2 -3 -1 -2 -0 1 -4 -3 -5 -1 0 0 3 -1 -1 -5 2 -1 1
-4 1 -2 -1 -2 1 -2 -4 1 0 2 1 -2 -2 -7 -5 -3 -5 -3 -3 -2 -3 -8 -10 -8 -1 1 -1 -3 -3 -4 -3 -2 -1 -2 -6 -2 1 1 -2 -3 -3 -2 2 0 1 4 7 8
-3 -4 4 -2 0 -1 2 -2 10 -2 5 -1 3 -1 -0 -0 -4 -4 -0 0 1 0 1 1 -0 2 -1 -4 -4 -3 -2 -4 -3 -2 1 -0 -2 1 0 -1 0 1 1 1 1 3 0 -2 -0
1 2 -3 -5 -4 2 0 -3 -12 -2 1 -1 -3 -8 -5 -2 -2 -3 -0 1 -1 -3 -3 -1 -1 -1 -2 -3 -5 -3 -1 -2 -1 -1 -0 1 -1 -3 -2 1 -1 0 -5 6 1 0 5 6 4
-3 -1 -2 -1 2 0 2 -20 -7 -0 2 -1 2 -9 3 3 3 1 -1 -1 -1 1 -1 -3 -5 -3 -3 -2 -2 -4 -1 -1 -1 -5 -2 -0 -0 -3 -2 2 -2 -0 6 -0 1 5 4 -1 -1
Height
3153 3155 3157 3161 3168 3165 3169 3171 3171 3171 3173 3172 3173 3174 3176 3175 3175 3180 3176 3176 3176 3178 3180 3182 3182 3184 3184 3182 3182 3181 3181 3181 3180 3180 3179 3178 3179 3179 3177 3178 3175 3176 3173 3173 3173 3171 3170 3170 3169
3154 3155 3157 3160 3164 3164 3170 3171 3172 3172 3171 3171 3175 3175 3175 3175 3173 3173 3175 3177 3177 3178 3180 3182 3182 3182 3180 3181 3180 3182 3181 3180 3179 3178 3176 3174 3175 3176 3175 3173 3172 3171 3171 3171 3170 3168 3167 3167 3166
3155 3155 3159 3163 3161 3164 3170 3172 3171 3172 3172 3173 3176 3176 3175 3175 3174 3174 3176 3177 3178 3179 3180 3180 3181 3181 3180 3181 3181 3180 3181 3179 3177 3177 3175 3173 3174 3172 3171 3169 3170 3170 3169 3167 3166 3165 3164 3163 3162
3155 3158 3162 3163 3164 3167 3170 3172 3173 3172 3173 3175 3176 3176 3175 3173 3174 3176 3177 3178 3179 3178 3179 3179 3180 3180 3180 3180 3179 3179 3178 3177 3175 3174 3172 3171 3171 3170 3169 3167 3167 3167 3167 3166 3164 3163 3161 3159 3158
3158 3159 3162 3164 3167 3168 3171 3172 3173 3174 3175 3175 3175 3175 3175 3174 3174 3175 3177 3177 3179 3179 3180 3179 3179 3179 3177 3177 3178 3177 3176 3174 3172 3172 3170 3169 3168 3167 3166 3165 3164 3163 3162 3161 3159 3158 3156 3156 3155
3161 3162 3162 3164 3170 3171 3172 3171 3173 3175 3175 3174 3175 3174 3175 3175 3177 3177 3177 3177 3178 3179 3179 3178 3177 3178 3176 3177 3176 3175 3174 3174 3172 3170 3169 3169 3168 3166 3165 3163 3162 3161 3160 3158 3157 3155 3154 3153 3152
3163 3163 3163 3168 3169 3172 3173 3172 3174 3175 3176 3175 3174 3174 3175 3175 3176 3178 3178 3179 3180 3180 3179 3177 3176 3176 3176 3176 3175 3174 3173 3173 3172 3170 3169 3169 3167 3165 3164 3162 3160 3158 3157 3156 3155 3154 3153 3151 3150
3160 3166 3166 3169 3169 3173 3173 3173 3173 3174 3175 3174 3175 3176 3176 3175 3176 3178 3178 3178 3178 3178 3178 3177 3177 3178 3177 3176 3175 3174 3173 3173 3172 3170 3169 3168 3166 3165 3163 3161 3159 3158 3156 3155 3153 3152 3150 3149 3147
3164 3167 3167 3169 3170 3174 3172 3173 3173 3173 3172 3172 3174 3176 3176 3176 3175 3176 3177 3178 3178 3177 3178 3176 3176 3178 3176 3174 3174 3173 3172 3171 3169 3168 3167 3166 3164 3162 3160 3159 3157 3156 3155 3153 3151 3149 3147 3146 3145
3165 3167 3169 3169 3171 3173 3173 3174 3173 3175 3174 3174 3173 3175 3175 3174 3174 3174 3175 3176 3176 3177 3178 3177 3176 3176 3175 3174 3173 3171 3170 3168 3168 3167 3166 3165 3163 3161 3159 3158 3156 3154 3152 3150 3148 3146 3145 3143 3141
3166 3169 3169 3169 3171 3172 3173 3172 3173 3174 3176 3177 3177 3175 3175 3174 3174 3174 3174 3175 3176 3177 3176 3176 3175 3175 3174 3173 3171 3170 3168 3168 3167 3166 3164 3162 3160 3158 3156 3154 3152 3150 3148 3146 3144 3141 3140 3138 3137
3167 3167 3169 3170 3169 3171 3173 3171 3172 3174 3176 3174 3175 3176 3175 3174 3171 3173 3174 3175 3176 3175 3175 3175 3174 3172 3172 3171 3170 3168 3167 3166 3164 3163 3161 3159 3157 3154 3152 3150 3147 3145 3142 3140 3138 3136 3134 3132 3130
3167 3169 3168 3170 3169 3171 3173 3172 3174 3174 3174 3175 3176 3175 3177 3175 3173 3173 3172 3174 3175 3174 3173 3174 3172 3171 3172 3170 3169 3167 3166 3165 3163 3161 3158 3156 3153 3151 3148 3146 3143 3140 3137 3134 3132 3129 3127 3125 3123
3166 3169 3168 3169 3170 3172 3172 3173 3172 3174 3173 3173 3175 3174 3174 3175 3173 3172 3172 3172 3173 3173 3173 3173 3172 3171 3171 3169 3168 3166 3165 3163 3161 3158 3155 3152 3149 3147 3144 3141 3138 3135 3132 3129 3126 3124 3122 3120 3118
3167 3169 3169 3167 3170 3173 3171 3173 3173 3171 3170 3171 3172 3172 3173 3173 3172 3172 3172 3173 3172 3172 3172 3172 3170 3170 3168 3167 3165 3163 3162 3160 3157 3154 3151 3148 3146 3143 3140 3137 3134 3131 3128 3125 3122 3119 3117 3115 3113
3168 3169 3169 3169 3168 3170 3172 3170 3172 3171 3169 3169 3170 3170 3171 3171 3171 3171 3171 3172 3172 3171 3170 3169 3169 3167 3166 3164 3162 3161 3159 3156 3153 3150 3147 3144 3141 3138 3136 3133 3130 3127 3124 3121 3118 3115 3112 3110 3107
3167 3168 3168 3168 3166 3168 3170 3169 3170 3167 3164 3164 3165 3167 3169 3169 3169 3169 3170 3171 3170 3169 3168 3167 3166 3164 3162 3160 3159 3157 3154 3152 3149 3146 3143 3139 3136 3132 3130 3127 3124 3120 3117 3115 3112 3109 3106 3105 3102
3166 3166 3166 3166 3167 3166 3167 3167 3164 3161 3159 3160 3162 3164 3166 3167 3166 3167 3168 3168 3167 3165 3164 3163 3161 3159 3157 3156 3155 3152 3150 3147 3144 3142 3138 3134 3131 3127 3124 3121 3118 3115 3111 3108 3105 3101 3099 3096 3095
3164 3164 3165 3165 3163 3163 3163 3163 3160 3159 3159 3160 3162 3163 3162 3162 3164 3164 3164 3162 3161 3160 3160 3159 3156 3154 3153 3152 3150 3148 3146 3143 3139 3136 3132 3127 3124 3121 3117 3114 3110 3106 3101 3099 3097 3092 3089 3087 3086
3163 3163 3163 3161 3160 3161 3161 3162 3160 3160 3159 3160 3160 3160 3160 3161 3161 3160 3160 3159 3158 3158 3156 3155 3153 3151 3149 3147 3145 3143 3139 3136 3133 3129 3126 3121 3117 3113 3109 3104 3100 3096 3092 3089 3087 3084 3080 3077 3075
3162 3162 3161 3162 3160 3159 3160 3162 3161 3160 3159 3159 3158 3159 3158 3157 3158 3158 3158 3158 3156 3155 3153 3152 3149 3147 3144 3142 3139 3135 3131 3128 3125 3121 3117 3114 3109 3105 3100 3095 3090 3086 3082 3078 3074 3072 3069 3065 3063
3162 3159 3158 3157 3158 3157 3157 3155 3160 3159 3158 3158 3157 3157 3156 3157 3157 3156 3156 3155 3153 3151 3149 3146 3143 3141 3138 3135 3132 3128 3124 3121 3115 3110 3105 3102 3100 3096 3090 3085 3080 3076 3072 3068 3064 3060 3056 3053 3049
3160 3157 3155 3154 3155 3156 3157 3156 3158 3159 3158 3157 3155 3155 3155 3154 3154 3154 3152 3151 3149 3146 3143 3140 3137 3134 3131 3128 3125 3121 3116 3110 3104 3100 3096 3092 3087 3082 3077 3073 3069 3066 3061 3057 3052 3047 3043 3038 3036
3158 3156 3154 3154 3155 3155 3156 3156 3156 3157 3156 3155 3154 3153 3153 3152 3151 3150 3148 3146 3143 3140 3137 3134 3131 3128 3125 3121 3116 3112 3106 3103 3098 3091 3085 3081 3076 3071 3067 3062 3057 3052 3046 3041 3036 3030 3026 3022 3018
3158 3156 3154 3155 3154 3151 3154 3155 3153 3154 3153 3152 3151 3151 3150 3149 3148 3146 3144 3140 3137 3134 3132 3129 3126 3122 3117 3113 3109 3104 3097 3092 3086 3080 3074 3068 3064 3060 3056 3050 3044 3037 3031 3025 3019 3016 3009 3006 3002
3157 3157 3157 3155 3153 3153 3153 3151 3152 3151 3151 3150 3149 3148 3147 3146 3144 3142 3139 3135 3132 3129 3126 3123 3120 3116 3111 3106 3100 3095 3089 3082 3075 3069 3064 3058 3053 3048 3042 3034 3029 3022 3016 3009 3004 3000 2997 2993 2991
3159 3159 3159 3157 3156 3155 3152 3153 3151 3149 3148 3147 3146 3145 3144 3142 3140 3137 3133 3130 3127 3124 3120 3117 3112 3108 3102 3095 3089 3082 3075 3069 3064 3059 3053 3047 3041 3034 3028 3021 3015 3008 3003 2999 2993 2990 2987 2983 2981
3159 3159 3159 3158 3157 3153 3147 3149 3147 3147 3148 3146 3145 3142 3140 3137 3134 3132 3129 3125 3122 3117 3112 3107 3101 3094 3088 3083 3077 3071 3065 3059 3053 3047 3041 3033 3026 3020 3013 3006 3002 2997 2994 2990 2987 2983 2980 2976 2972
3159 3158 3157 3158 3158 3156 3152 3147 3146 3147 3145 3144 3141 3138 3136 3133 3129 3125 3122 3118 3113 3107 3102 3096 3091 3085 3079 3072 3065 3059 3053 3047 3041 3034 3027 3020 3013 3007 3002 2998 2993 2989 2986 2983 2978 2975 2971 2968 2965
3155 3155 3156 3156 3156 3156 3155 3147 3142 3142 3141 3139 3134 3131 3129 3126 3123 3119 3115 3111 3105 3100 3095 3088 3081 3075 3069 3062 3055 3050 3044 3037 3030 3023 3015 3008 3002 2997 2994 2989 2985 2982 2979 2975 2971 2967 2963 2961 2958